User: anonymous   Login
Location: ??
(34.9170°N, 135.5016°E)
Time: 23:46:26
(UTC+00:00)
Language:

Cosmos 2058 Rocket - Orbit

View from above orbital plane
View from above orbital plane
View from above satellite
View from above satellite

Ground track
Ground track

The orbit data is extracted from the following two-line orbital elements,

1 20466U 90010B   21015.29960023  .00000076  00000-0  66694-5 0  9997
2 20466  82.5017 228.5095 0020639   5.8475 354.2976 14.81407396650092
Epoch (UTC): 15 January 2021 07:11:25
Eccentricity: 0.0020639
inclination: 82.5017°
perigee height: 610 km
apogee height: 639 km
right ascension of ascending node: 228.5095°
argument of perigee: 5.8475°
revolutions per day: 14.81407396
mean anomaly at epoch: 354.2976°
orbit number at epoch: 65009

The dashed part of the orbit path shows where the satellite is in the earth's shadow,  

DLR